Location: Malanoce
(44.2500°N, 7.4667°E)
Time: 05:09:14
(UTC+00:00)

ATLAS 2AS CENTAUR R/B - Pass Details

Date: 17 November 2025
Orbit: 1047 x 1163 km, 63.7° (Epoch: 09 December)

Event Time Altitude Azimuth Distance (km) Brightness Sun altitude
Rises 18:16:54 0° 324° (NW) 3,849 6.1 -24.1°
Reaches altitude 10° 18:19:48 10° 333° (NNW) 2,881 5.2 -24.7°
Enters shadow 18:25:35 37° 31° (NNE) 1,580 3.3 -25.7°
